Terug naar catalogus

OSCAR 23 DEB

ActiefPO
NORAD 33395·DEBRIS·🇺🇸 United States

Gelanceerd Apr 26, 1988 vanaf Vandenberg Space Force Base

Loading…

Volgende Passages (komende 24 uur)

TLE

VersSource: Space-Track

Epoch: Sep 14, 2026, 15:39 UTC

1 33395U 88033K   26257.65234797  .00000113  00000-0  20082-3 0  9990
2 33395  90.3355  25.0459 0186987 105.2946 271.4054 13.29844412867744

Volg OSCAR 23 DEB in realtime met AllMySat

Download on the App Store